STARLINK-32733, 62477

Orbit data source: Space-Track

STARLINK-32733, 62477 is a payload satellite owned by SpaceX/Seattle (US) in LEO that was launched on Tue, 31 Dec 2024 UTC via an FALCON 9 launch vehicle from the Air Force Eastern Test Range (AFETR). Payload-class satellites include a variety of spacecraft equipped with specific instruments for various scientific and technological missions. These include communications satellites like Starlink; space stations such as the ISS; scientific satellites like the Hubble; Earth observation satellites from companies like Planet Labs, Umbra, and HawkEye 360; GPS; miniature CubeSats for education and research; and military/defense satellites.

Loading next visibility...
Identifier
62477, 2024-254R
Orbit
LEO
Country
Flag of USUS
Related business
Manufacturer
SpaceX/Seattle
Mission
Operational Commercial Communications
Bus & Motor
STARLINK V2M, Unknown motor
Mass
730 kg wet, ~700 kg dry
Launch date (UTC)
2024-12-31 (10 months ago)
Launch vehicle
FALCON 9
Launch site
Air Force Eastern Test Range (AFETR)
Object type
Payload
Rocket body
Debris
Shape & HBR
Box + 2 Pan, 17.7 m
Radar Cross Section
33.884 m², Large (>1 m²)

Expand to show TLE details & history
Last TLE update: 7 hours ago

TLE from 7 hours ago
0 STARLINK-32733
1 62477U 24254R   25290.79585912  .00035097  00000-0  12779-2 0  9999
2 62477  43.0018 102.9763 0001594 266.1752  93.8917 15.27603945 45806
Epoch: 2025-10-17T19:06Z
TLE epoch observation values (Epoch: 2025-10-17T19:06:02.227Z)
Latitude
-0.00007°
Longitude
149.93085°
Altitude
482.827 km
Speed
7.626 km/s
True Right ascension
06h 51m 54s
True Declination
0° 00' 00"
Sunlit
Object was in daylight at epoch
Visualization orbit readout
Latitude
Unknown
Longitude
Unknown
Altitude
Unknown
Speed
Unknown
Apparent Right ascension
Unknown
Apparent Declination
Unknown
Sunlit
N/A
Visualization observer readout
Local Sidereal Time
21:03:12
Azimuth
Unknown
Elevation
Unknown
Doppler factor
Unknown
Orbital elements
Apogee altitude
486.016 km
Perigee altitude
483.828 km
Semi-major axis
6,863.059 km
Eccentricity
0.00016
Inclination
43.0018°
RAAN
102.9763°
Arg. of periapsis
266.1752°
True anomaly
93.90992°
Mean anomaly
93.8917°
Eccentric anomaly
93.90081°
Mean motion
3.81739 °/min
Orbital period
94.31 mins
BSTAR
0.0012779
Loading maneuver chart data...
Computing Atmospheric mass density...
Loading historical data...
Loading historical data...
Loading historical data...
Loading historical data...
Loading historical data...
Loading historical data...
Loading historical data...

Documentation

Showing up to 5 results
|